EW1448 Weather Reports


time (UTC)temp
C
wind
direction
speed
KPH
gust
KPH
rain 1hr
cm
rain 24hr
cm
rain mn
cm
humidity
%
barometer
mb
20260509011535 31 266 17.7 29.0 0.00 0.00 0.00 13 1011.0
20260509010058 32 276 12.9 25.7 0.00 0.00 0.00 13 1011.0
20260509004631 32 274 17.7 32.2 0.00 0.00 0.00 12 1011.0
20260508233049 33 269 11.3 29.0 0.00 0.00 0.00 12 1011.4
20260508231534 33 137 9.7 22.5 0.00 0.00 0.00 13 1011.3
20260508230033 32 209 14.5 27.4 0.00 0.00 0.00 13 1011.4
20260508224525 32 210 16.1 25.7 0.00 0.00 0.00 13 1011.6
20260508223040 32 189 14.5 27.4 0.00 0.00 0.00 13 1011.8
20260508221605 32 176 11.3 33.8 0.00 0.00 0.00 12 1012.0
20260508220033 32 222 9.7 27.4 0.00 0.00 0.00 12 1012.2
20260508214521 33 193 8.0 11.3 0.00 0.00 0.00 8 1012.5
20260508173100 27 277 3.2 6.4 0.00 0.00 0.00 14 1016.4
20260508171523 26 134 1.6 6.4 0.00 0.00 0.00 16 1016.5
20260508170033 25 94 1.6 6.4 0.00 0.00 0.00 18 1016.7
20260508164556 24 70 1.6 6.4 0.00 0.00 0.00 18 1016.8
20260508163029 24 52 1.6 6.4 0.00 0.00 0.00 18 1017.0
20260508161547 23 52 1.6 6.4 0.00 0.00 0.00 18 1017.0
20260508160026 23 119 1.6 4.8 0.00 0.00 0.00 18 1017.1
20260508154602 22 72 1.6 6.4 0.00 0.00 0.00 20 1017.1
20260508153035 21 49 0.0 8.0 0.00 0.00 0.00 19 1017.2
20260508151529 21 29 1.6 4.8 0.00 0.00 0.00 19 1017.3
20260508144520 19 356 1.6 6.4 0.00 0.00 0.00 21 1017.4
20260508143047 18 295 0.0 1.6 0.00 0.00 0.00 21 1017.4
20260508141541 18 52 0.0 1.6 0.00 0.00 0.00 23 1017.3
20260508140051 17 44 0.0 3.2 0.00 0.00 0.00 23 1017.2
20260508134547 17 4 0.0 1.6 0.00 0.00 0.00 24 1017.1
20260508133021 14 280 0.0 0.0 0.00 0.00 0.00 26 1017.0